Weather History for Pittsburgh Allegheny Co., PA

Change the Weather History Date:

Thursday, November 24, 2011

  Actual Average Record
Temperature  
Mean Temperature 40 °F -  
Max Temperature 48 °F 49 °F 64 °F (2001)
Min Temperature 33 °F 31 °F 12 °F (2005)
Degree Days  
Heating Degree Days 24    
Moisture  
Dew Point 34 °F    
Average Humidity 85    
Maximum Humidity 93    
Minimum Humidity 64    
Precipitation  
Precipitation 0.01 in - - ()
Sea Level Pressure  
Sea Level Pressure 30.30 in    
Wind  
Wind Speed 8 mph (SW)    
Max Wind Speed 14 mph    
Max Gust Speed 20 mph    
Visibility 7 miles    
Events      
Averages and records for this station are not official NWS values.
T = Trace of Precipitation, MM = Missing Value Source: NWS Daily Summary

Daily Weather History Graph

Daily Weather History Graph

Search for Another Location

Airport:

Trip Planner

Search our weather history database for the weather conditions in past years. The results will help you decide how hot, cold, wet, or windy it might be!

Date:

Astronomy

Nov. 24, 2011 Rise Set
Actual Time 7:15 AM EST 4:56 PM EST
Civil Twilight 6:45 AM EST 5:26 PM EST
Nautical Twilight 6:12 AM EST 5:59 PM EST
Astronomical Twilight 5:39 AM EST 6:32 PM EST
Moon 6:31 AM EST (11/24) 4:26 PM EST (11/24)
Length of Visible Light 10h 40m
Length of Day
9h 41m
Waning Crescent, 0% of the Moon is Illuminated
Nov 24
Waning Crescent
Nov 25
New
Dec 2
First Quarter
Dec 10
Full
Dec 17
Last Quarter

Hourly Weather History & Observations

Time (EST) Temp. Windchill Dew Point Humidity Pressure Visibility Wind Dir Wind Speed Gust Speed Precip Events Conditions
12:53 AM 36.0 °F 31.1 °F 32.0 °F 86% 30.24 in 10.0 mi WSW 5.8 mph - N/A   Clear
1:53 AM 33.1 °F 28.7 °F 30.9 °F 92% 30.25 in 10.0 mi South 4.6 mph - N/A   Clear
2:53 AM 34.0 °F 26.6 °F 32.0 °F 92% 30.25 in 6.0 mi South 9.2 mph - N/A   Clear
3:53 AM 34.0 °F 27.2 °F 30.9 °F 89% 30.25 in 5.0 mi South 8.1 mph - N/A   Clear
4:53 AM 33.1 °F 26.1 °F 30.9 °F 92% 30.28 in 5.0 mi South 8.1 mph - 0.01 in   Clear
5:53 AM 33.1 °F 24.9 °F 30.9 °F 92% 30.28 in 5.0 mi South 10.4 mph - N/A   Clear
6:53 AM 33.8 °F 27.0 °F 30.2 °F 87% 30.25 in 5.0 mi SSW 8.1 mph - N/A   Clear
7:35 AM 33.8 °F 28.6 °F 30.2 °F 87% 30.27 in 4.0 mi South 5.8 mph - N/A   Scattered Clouds
7:53 AM 34.0 °F 28.8 °F 32.0 °F 92% 30.33 in 2.5 mi SW 5.8 mph - N/A   Overcast
8:32 AM 35.6 °F 28.0 °F 33.8 °F 93% 30.30 in 0.8 mi WSW 10.4 mph - N/A   Overcast
8:53 AM 36.0 °F 28.5 °F 34.0 °F 93% 30.35 in 0.8 mi SW 10.4 mph - N/A   Overcast
9:02 AM 35.6 °F 28.6 °F 33.8 °F 93% 30.30 in 1.5 mi SW 9.2 mph - N/A   Overcast
9:13 AM 35.6 °F 27.5 °F 33.8 °F 93% 30.30 in 2.5 mi WSW 11.5 mph - N/A   Overcast
9:20 AM 35.6 °F 27.5 °F 33.8 °F 93% 30.30 in 4.0 mi WSW 11.5 mph - N/A   Overcast
9:29 AM 35.6 °F 28.0 °F 33.8 °F 93% 30.31 in 4.0 mi SW 10.4 mph - N/A   Overcast
9:53 AM 36.0 °F 29.6 °F 34.0 °F 93% 30.35 in 2.0 mi WSW 8.1 mph - N/A   Overcast
10:00 AM 37.4 °F 32.1 °F 33.8 °F 87% 30.31 in 4.0 mi WSW 6.9 mph - N/A   Overcast
10:21 AM 37.4 °F 29.8 °F 33.8 °F 87% 30.31 in 7.0 mi SW 11.5 mph - N/A   Mostly Cloudy
10:53 AM 39.0 °F 33.4 °F 35.1 °F 86% 30.35 in 7.0 mi SW 8.1 mph - N/A   Mostly Cloudy
11:40 AM 42.8 °F 39.3 °F 37.4 °F 81% 30.29 in 10.0 mi Variable 5.8 mph - N/A   Mostly Cloudy
11:53 AM 44.1 °F 39.0 °F 37.0 °F 76% 30.33 in 10.0 mi SW 9.2 mph - N/A   Scattered Clouds
12:53 PM 46.9 °F - 37.0 °F 68% 30.32 in 10.0 mi SW 6.9 mph - N/A   Clear
1:53 PM 48.9 °F - 37.0 °F 64% 30.32 in 10.0 mi SW 11.5 mph - N/A   Clear
2:53 PM 48.9 °F - 37.0 °F 64% 30.31 in 10.0 mi WSW 9.2 mph - N/A   Clear
3:53 PM 46.0 °F 40.2 °F 35.1 °F 66% 30.31 in 10.0 mi SW 12.7 mph - N/A   Clear
4:53 PM 42.8 °F 37.0 °F 35.6 °F 76% 30.27 in 10.0 mi SSW 10.4 mph - N/A   Clear
5:46 PM 39.2 °F 31.2 °F 35.6 °F 87% 30.27 in 10.0 mi SW 13.8 mph 19.6 mph N/A   Mostly Cloudy
5:53 PM 39.0 °F 31.0 °F 34.0 °F 82% 30.32 in 10.0 mi SW 13.8 mph - N/A   Mostly Cloudy
6:53 PM 39.0 °F 32.8 °F 34.0 °F 82% 30.33 in 10.0 mi SW 9.2 mph - N/A   Overcast
7:13 PM 39.2 °F 33.6 °F 33.8 °F 81% 30.28 in 10.0 mi SW 8.1 mph - N/A   Overcast
7:53 PM 39.0 °F 32.3 °F 34.0 °F 82% 30.33 in 10.0 mi SW 10.4 mph - N/A   Overcast
8:53 PM 37.9 °F 32.7 °F 34.0 °F 86% 30.33 in 10.0 mi SSW 6.9 mph - N/A   Overcast
9:53 PM 37.9 °F 32.1 °F 34.0 °F 86% 30.33 in 10.0 mi SW 8.1 mph - N/A   Overcast
10:53 PM 39.0 °F 34.0 °F 35.1 °F 86% 30.32 in 10.0 mi South 6.9 mph - N/A   Overcast
11:43 PM 37.4 °F 32.1 °F 35.6 °F 93% 30.27 in 8.0 mi South 6.9 mph - N/A   Scattered Clouds
11:53 PM 37.0 °F 31.0 °F 34.0 °F 89% 30.31 in 7.0 mi South 8.1 mph - N/A   Clear